GW7444 Weather Reports


time (UTC)temp
C
wind
direction
speed
KPH
gust
KPH
rain 1hr
cm
rain 24hr
cm
rain mn
cm
humidity
%
barometer
mb
20260831152028 23 105 0.0 1.6 0.00 0.00 0.00 91 1020.3
20260831151548 23 101 0.0 1.6 0.00 0.00 0.00 91 1020.3
20260831151029 23 101 0.0 1.6 0.00 0.00 0.00 91 1020.4
20260831150529 23 0 0.0 1.6 0.00 0.00 0.00 91 1020.3
20260831150047 23 0 0.0 1.6 0.00 0.00 0.00 91 1020.3
20260831145529 23 101 0.0 1.6 0.00 0.00 0.00 91 1020.3
20260831145032 23 0 0.0 1.6 0.00 0.00 0.00 91 1020.3
20260831144552 23 0 0.0 1.6 0.00 0.00 0.00 91 1020.2
20260831144028 23 0 0.0 0.0 0.00 0.00 0.00 92 1020.2
20260831143531 22 0 0.0 1.6 0.00 0.00 0.00 93 1020.1
20260831143048 22 0 0.0 6.4 0.00 0.00 0.00 94 1020.2
20260831142526 22 101 1.6 6.4 0.00 0.00 0.00 93 1020.1
20260831142027 22 101 1.6 6.4 0.00 0.00 0.00 93 1020.1
20260831141552 22 0 0.0 3.2 0.00 0.00 0.00 93 1019.9
20260831141029 22 0 0.0 3.2 0.00 0.00 0.00 94 1020.0
20260831140533 22 97 0.0 4.8 0.00 0.00 0.00 93 1019.9
20260831140051 22 0 0.0 4.8 0.00 0.00 0.00 93 1019.9
20260831135528 22 96 3.2 4.8 0.00 0.00 0.00 93 1019.9
20260831135033 22 96 1.6 4.8 0.00 0.00 0.00 93 1019.9
20260831134553 22 94 3.2 4.8 0.00 0.00 0.00 93 1019.9
20260831134030 22 103 1.6 6.4 0.00 0.00 0.00 93 1020.0
20260831133528 22 101 0.0 8.0 0.00 0.00 0.00 93 1020.1
20260831133102 22 146 3.2 8.0 0.00 0.00 0.00 93 1020.1
20260831132529 22 104 1.6 6.4 0.00 0.00 0.00 93 1020.0
20260831132029 22 96 4.8 6.4 0.00 0.00 0.00 93 1020.0
20260831131557 22 98 1.6 8.0 0.00 0.00 0.00 94 1019.9
20260831131027 22 132 3.2 8.0 0.00 0.00 0.00 95 1019.9
20260831130527 22 98 3.2 6.4 0.00 0.00 0.00 96 1019.8
20260831130047 21 96 3.2 6.4 0.00 0.00 0.00 95 1019.9
20260831125528 21 99 1.6 3.2 0.00 0.00 0.00 97 1019.9
20260831125031 21 99 1.6 3.2 0.00 0.00 0.00 97 1019.9
20260831124543 21 114 1.6 3.2 0.00 0.00 0.00 97 1019.9
20260831124031 21 114 3.2 3.2 0.00 0.00 0.00 97 1020.0
20260831123528 21 110 1.6 3.2 0.00 0.00 0.00 97 1020.1
20260831123052 21 110 1.6 3.2 0.00 0.00 0.00 97 1020.1
20260831122532 21 110 0.0 1.6 0.00 0.00 0.00 97 1020.1
20260831122029 21 0 0.0 0.0 0.00 0.00 0.00 97 1020.1
20260831121546 21 0 0.0 0.0 0.00 0.00 0.00 97 1020.1
20260831121027 21 0 0.0 0.0 0.00 0.00 0.00 97 1020.0
20260831120527 20 0 0.0 0.0 0.00 0.00 0.00 97 1020.0
20260831120047 20 0 0.0 1.6 0.00 0.00 0.00 97 1019.9
20260831115529 20 0 0.0 3.2 0.00 0.00 0.00 97 1019.9
20260831115028 20 110 0.0 3.2 0.00 0.00 0.00 97 1019.9
20260831114553 20 110 1.6 3.2 0.00 0.00 0.00 97 1019.8
20260831114028 20 110 3.2 3.2 0.00 0.00 0.00 97 1019.8
20260831113530 20 110 1.6 3.2 0.00 0.00 0.00 97 1019.8
20260831113102 20 110 1.6 3.2 0.00 0.00 0.00 97 1019.8
20260831112529 20 110 1.6 4.8 0.00 0.00 0.00 97 1019.7
20260831112029 20 110 1.6 4.8 0.00 0.00 0.00 97 1019.6
20260831111547 20 110 1.6 4.8 0.00 0.00 0.00 97 1019.6
20260831111031 20 0 0.0 0.0 0.00 0.00 0.00 97 1019.6
20260831110529 20 0 0.0 0.0 0.00 0.00 0.00 97 1019.5
20260831110045 20 0 0.0 0.0 0.00 0.00 0.00 97 1019.5
20260831105533 20 0 0.0 0.0 0.00 0.00 0.00 97 1019.5
20260831105029 20 0 0.0 1.6 0.00 0.00 0.00 97 1019.4
20260831104551 20 0 0.0 1.6 0.00 0.00 0.00 97 1019.4
20260831104030 20 102 0.0 1.6 0.00 0.00 0.00 97 1019.4
20260831103528 20 0 0.0 3.2 0.00 0.00 0.00 96 1019.4
20260831103052 20 0 0.0 3.2 0.00 0.00 0.00 96 1019.3
20260831102528 20 0 0.0 4.8 0.00 0.00 0.00 96 1019.3
20260831102029 20 100 1.6 4.8 0.00 0.00 0.00 96 1019.3
20260831101548 20 0 0.0 3.2 0.00 0.00 0.00 96 1019.2
20260831101027 21 103 1.6 4.8 0.00 0.00 0.00 96 1019.3
20260831100530 21 103 1.6 4.8 0.00 0.00 0.00 96 1019.2
20260831100047 21 103 1.6 4.8 0.00 0.00 0.00 96 1019.2
20260831095528 21 100 1.6 4.8 0.00 0.00 0.00 96 1019.2
20260831095028 21 98 1.6 4.8 0.00 0.00 0.00 96 1019.2
20260831094557 20 98 1.6 3.2 0.00 0.00 0.00 96 1019.2
20260831094028 20 0 0.0 0.0 0.00 0.00 0.00 96 1019.2
20260831093530 20 0 0.0 0.0 0.00 0.00 0.00 96 1019.2
20260831093136 20 0 0.0 0.0 0.00 0.00 0.00 96 1019.1
20260831092533 20 0 0.0 0.0 0.00 0.00 0.00 96 1019.1
20260831092026 20 0 0.0 1.6 0.00 0.00 0.00 96 1019.1
20260831091549 20 0 0.0 3.2 0.00 0.00 0.00 95 1019.1
20260831091031 21 0 0.0 4.8 0.00 0.00 0.00 95 1019.1
20260831090529 21 109 1.6 4.8 0.00 0.00 0.00 95 1019.2
20260831090046 21 109 1.6 4.8 0.00 0.00 0.00 95 1019.2
20260831085530 21 108 3.2 4.8 0.00 0.00 0.00 95 1019.3
20260831085032 21 119 3.2 4.8 0.00 0.00 0.00 95 1019.3
20260831084628 21 105 1.6 3.2 0.00 0.00 0.00 95 1019.3
20260831084028 21 105 0.0 4.8 0.00 0.00 0.00 95 1019.4
20260831083530 21 113 1.6 4.8 0.00 0.00 0.00 95 1019.3
20260831083050 21 113 1.6 4.8 0.00 0.00 0.00 95 1019.3
20260831082527 21 109 0.0 3.2 0.00 0.00 0.00 95 1019.4
20260831082031 21 109 0.0 3.2 0.00 0.00 0.00 95 1019.4
20260831081547 21 0 0.0 4.8 0.00 0.00 0.00 95 1019.4
20260831081029 21 115 1.6 6.4 0.00 0.00 0.00 95 1019.4
20260831080529 21 103 3.2 9.7 0.00 0.00 0.00 95 1019.3
20260831080106 21 136 4.8 9.7 0.00 0.00 0.00 95 1019.3
20260831075528 21 137 4.8 9.7 0.00 0.00 0.00 95 1019.2
20260831075028 21 144 4.8 9.7 0.00 0.00 0.00 95 1019.2
20260831074548 21 153 4.8 9.7 0.00 0.00 0.00 95 1019.2
20260831074029 21 143 3.2 6.4 0.00 0.00 0.00 95 1019.1
20260831073527 21 91 3.2 6.4 0.00 0.00 0.00 95 1019.2
20260831073046 21 96 3.2 6.4 0.00 0.00 0.00 95 1019.2
20260831072528 21 96 3.2 6.4 0.00 0.00 0.00 95 1019.1
20260831072028 21 97 3.2 4.8 0.00 0.00 0.00 95 1019.2
20260831071548 21 110 1.6 3.2 0.00 0.00 0.00 95 1019.3
20260831071029 20 109 1.6 3.2 0.00 0.00 0.00 95 1019.3
20260831070528 20 108 0.0 3.2 0.00 0.00 0.00 95 1019.4
20260831070046 21 108 0.0 4.8 0.00 0.00 0.00 95 1019.4
20260831065533 21 113 3.2 4.8 0.00 0.00 0.00 95 1019.4
20260831065030 21 120 3.2 4.8 0.00 0.00 0.00 95 1019.3
20260831064556 20 101 0.0 4.8 0.00 0.00 0.00 94 1019.4
20260831064027 20 101 1.6 4.8 0.00 0.00 0.00 94 1019.5
20260831063528 21 101 3.2 4.8 0.00 0.00 0.00 94 1019.4
20260831063102 21 108 0.0 4.8 0.00 0.00 0.00 94 1019.5
20260831062528 21 103 1.6 4.8 0.00 0.00 0.00 94 1019.5
20260831062031 21 103 0.0 4.8 0.00 0.00 0.00 93 1019.5
20260831061547 21 103 1.6 4.8 0.00 0.00 0.00 92 1019.6
20260831061027 21 134 3.2 4.8 0.00 0.00 0.00 92 1019.7
20260831060529 21 134 3.2 6.4 0.00 0.00 0.00 92 1019.7
20260831060056 21 136 3.2 6.4 0.00 0.00 0.00 92 1019.7
20260831055528 21 138 3.2 6.4 0.00 0.00 0.00 92 1019.8
20260831055028 21 136 3.2 6.4 0.00 0.00 0.00 92 1019.8
20260831054551 21 143 3.2 4.8 0.00 0.00 0.00 92 1019.9
20260831054029 21 114 3.2 6.4 0.00 0.00 0.00 92 1020.0
20260831053528 21 113 3.2 6.4 0.00 0.00 0.00 92 1020.0
20260831053058 20 109 1.6 3.2 0.00 0.00 0.00 93 1019.9
20260831052528 20 108 0.0 1.6 0.00 0.00 0.00 93 1019.9
20260831052028 20 108 0.0 1.6 0.00 0.00 0.00 93 1020.0
20260831051551 21 0 0.0 0.0 0.00 0.00 0.00 92 1019.9
20260831051027 21 0 0.0 0.0 0.00 0.00 0.00 92 1019.9
20260831050531 21 0 0.0 0.0 0.00 0.00 0.00 92 1019.9
20260831050048 21 0 0.0 1.6 0.00 0.00 0.00 91 1019.9
20260831045528 21 0 0.0 1.6 0.00 0.00 0.00 91 1020.0
20260831045028 21 0 0.0 0.0 0.00 0.00 0.00 91 1020.0
20260831044546 21 0 0.0 0.0 0.00 0.00 0.00 90 1019.9
20260831044028 21 0 0.0 0.0 0.00 0.00 0.00 91 1020.1
20260831043527 21 0 0.0 0.0 0.00 0.00 0.00 91 1020.1
20260831043049 21 0 0.0 0.0 0.00 0.00 0.00 90 1020.1
20260831042528 21 0 0.0 0.0 0.00 0.00 0.00 89 1020.0
20260831042029 21 0 0.0 0.0 0.00 0.00 0.00 89 1020.0
20260831041550 21 0 0.0 0.0 0.00 0.00 0.00 89 1019.9
20260831041028 21 0 0.0 0.0 0.00 0.00 0.00 89 1019.9
20260831040528 21 0 0.0 0.0 0.00 0.00 0.00 89 1020.0
20260831040045 22 0 0.0 0.0 0.00 0.00 0.00 88 1020.1
20260831035528 22 0 0.0 0.0 0.00 0.00 0.00 88 1020.0
20260831035029 22 0 0.0 1.6 0.00 0.00 0.00 88 1020.0
20260831034601 22 0 0.0 3.2 0.00 0.00 0.00 88 1020.1
20260831034026 22 113 1.6 4.8 0.00 0.00 0.00 89 1020.2
20260831033527 22 113 1.6 4.8 0.00 0.00 0.00 89 1020.1
20260831033058 22 113 1.6 4.8 0.00 0.00 0.00 89 1020.2
20260831032527 21 113 3.2 6.4 0.00 0.00 0.00 89 1020.3
20260831032025 21 123 3.2 6.4 0.00 0.00 0.00 89 1020.3
20260831031545 21 122 3.2 6.4 0.00 0.00 0.00 90 1020.4
20260831031027 21 115 3.2 4.8 0.00 0.00 0.00 90 1020.5
20260831030529 21 117 3.2 6.4 0.00 0.00 0.00 90 1020.5
20260831030056 21 115 3.2 6.4 0.00 0.00 0.00 90 1020.6
20260831025529 21 110 3.2 6.4 0.00 0.00 0.00 89 1020.7
20260831025031 22 120 3.2 6.4 0.00 0.00 0.00 89 1020.7
20260831024559 22 114 3.2 6.4 0.00 0.00 0.00 89 1020.8
20260831024028 22 115 3.2 4.8 0.00 0.00 0.00 90 1020.7
20260831023526 22 117 3.2 4.8 0.00 0.00 0.00 89 1020.8
20260831023050 22 117 3.2 3.2 0.00 0.00 0.00 89 1020.7
20260831022529 22 114 1.6 3.2 0.00 0.00 0.00 88 1020.8
20260831022028 22 114 1.6 3.2 0.00 0.00 0.00 89 1020.9
20260831021555 22 114 1.6 3.2 0.00 0.00 0.00 89 1020.8
20260831021028 22 114 1.6 3.2 0.00 0.00 0.00 90 1020.8
20260831020531 22 114 1.6 3.2 0.00 0.00 0.00 91 1020.8
20260831020056 22 0 0.0 1.6 0.00 0.00 0.00 90 1020.9
20260831015528 22 0 0.0 1.6 0.00 0.00 0.00 90 1020.9
20260831015028 22 0 0.0 1.6 0.00 0.00 0.00 90 1020.9
20260831014547 21 0 0.0 3.2 0.00 0.00 0.00 91 1020.8
20260831014028 21 114 1.6 3.2 0.00 0.00 0.00 92 1020.8
20260831013531 21 110 3.2 3.2 0.00 0.00 0.00 92 1020.8
20260831013048 22 110 1.6 3.2 0.00 0.00 0.00 91 1020.9
20260831012527 22 110 0.0 4.8 0.00 0.00 0.00 91 1020.9
20260831012029 22 0 1.6 4.8 0.00 0.00 0.00 91 1020.9
20260831011553 22 110 3.2 4.8 0.00 0.00 0.00 91 1020.9
20260831011028 22 110 1.6 3.2 0.00 0.00 0.00 91 1020.8
20260831010529 22 110 3.2 3.2 0.00 0.00 0.00 90 1020.7
20260831010051 22 110 0.0 0.0 0.00 0.00 0.00 89 1020.6
20260831005529 22 0 0.0 0.0 0.00 0.00 0.00 87 1020.4
20260831005029 22 0 0.0 0.0 0.00 0.00 0.00 86 1020.4
20260831004554 22 0 0.0 0.0 0.00 0.00 0.00 86 1020.1
20260831004029 22 0 0.0 0.0 0.00 0.00 0.00 86 1019.9
20260831003528 22 0 0.0 0.0 0.00 0.00 0.00 87 1019.8
20260831003050 22 0 0.0 0.0 0.00 0.00 0.00 85 1019.7
20260831002527 22 0 0.0 0.0 0.00 0.00 0.00 86 1019.6
20260831002031 22 0 0.0 0.0 0.00 0.00 0.00 87 1019.5
20260831001545 22 0 0.0 0.0 0.00 0.00 0.00 87 1019.4
20260831001028 22 0 0.0 0.0 0.00 0.00 0.00 87 1019.4
20260831000529 22 0 0.0 0.0 0.00 0.00 0.00 86 1019.4
20260831000045 22 0 0.0 0.0 0.00 0.00 0.00 86 1019.4
20260830235529 23 0 0.0 1.6 0.00 0.00 0.00 85 1019.3
20260830235028 23 0 0.0 3.2 0.00 0.00 0.00 83 1019.3
20260830234551 23 0 0.0 3.2 0.00 0.00 0.00 81 1019.3
20260830234028 23 110 1.6 3.2 0.00 0.00 0.00 81 1019.3
20260830233527 23 110 1.6 3.2 0.00 0.00 0.00 84 1019.3
20260830233057 23 110 1.6 3.2 0.00 0.00 0.00 84 1019.2
20260830232530 23 110 0.0 1.6 0.00 0.00 0.00 83 1019.2
20260830232029 23 0 1.6 3.2 0.00 0.00 0.00 82 1019.1
20260830231547 23 110 1.6 3.2 0.00 0.00 0.00 81 1019.0
20260830231029 24 110 1.6 3.2 0.00 0.00 0.00 80 1018.8
20260830230527 24 110 0.0 3.2 0.00 0.00 0.00 80 1018.9
20260830230046 24 110 1.6 3.2 0.00 0.00 0.00 80 1018.9
20260830225530 24 101 1.6 6.4 0.00 0.00 0.00 80 1018.8
20260830225029 24 99 3.2 6.4 0.00 0.00 0.00 81 1018.9
20260830224548 23 98 3.2 3.2 0.00 0.00 0.00 78 1019.0
20260830224028 23 99 0.0 6.4 0.00 0.00 0.00 83 1018.8
20260830223529 23 0 1.6 6.4 0.00 0.00 0.00 83 1018.6
20260830223045 23 139 4.8 6.4 0.00 0.00 0.00 87 1018.3
20260830222528 24 134 4.8 6.4 0.00 0.00 0.00 84 1018.7
20260830222028 24 112 1.6 3.2 0.00 0.00 0.00 83 1018.8
20260830221544 25 0 0.0 0.0 0.00 0.00 0.00 80 1018.8
20260830221027 25 0 0.0 0.0 0.00 0.00 0.00 78 1018.9
20260830220528 26 0 0.0 0.0 0.00 0.00 0.00 73 1019.0
20260830220045 26 0 0.0 0.0 0.00 0.00 0.00 75 1019.0
20260830215528 26 0 0.0 0.0 0.00 0.00 0.00 76 1019.0
20260830215031 26 0 0.0 0.0 0.00 0.00 0.00 73 1018.9
20260830214548 26 0 0.0 0.0 0.00 0.00 0.00 75 1018.9
20260830214029 25 0 0.0 0.0 0.00 0.00 0.00 76 1018.9
20260830213528 25 0 0.0 0.0 0.00 0.00 0.00 76 1018.7
20260830213048 25 0 0.0 4.8 0.00 0.00 0.00 75 1018.7
20260830212530 26 0 1.6 4.8 0.00 0.00 0.00 77 1018.8
20260830212025 26 103 1.6 4.8 0.00 0.00 0.00 71 1018.8
20260830211550 26 103 1.6 4.8 0.00 0.00 0.00 71 1019.2
20260830211029 26 0 0.0 3.2 0.00 0.00 0.00 70 1019.2
20260830210528 26 0 0.0 3.2 0.00 0.00 0.00 71 1019.2
20260830210049 26 103 1.6 3.2 0.00 0.00 0.00 71 1019.2
20260830205528 26 103 0.0 3.2 0.00 0.00 0.00 70 1019.3
20260830205029 26 0 0.0 1.6 0.00 0.00 0.00 71 1019.4
20260830204544 26 0 0.0 9.7 0.00 0.00 0.00 71 1019.5
20260830204028 26 0 0.0 12.9 0.00 0.00 0.00 73 1019.6
20260830203528 26 106 8.0 12.9 0.00 0.00 0.00 70 1019.8
20260830203048 26 107 6.4 12.9 0.00 0.00 0.00 69 1019.8
20260830202529 26 100 4.8 11.3 0.00 0.00 0.00 71 1019.9
20260830202032 26 100 1.6 9.7 0.00 0.00 0.00 71 1019.9
20260830201549 26 105 6.4 9.7 0.00 0.00 0.00 70 1020.0
20260830201028 26 103 6.4 9.7 0.00 0.00 0.00 70 1020.1
20260830200525 26 103 6.4 12.9 0.00 0.00 0.00 70 1020.1
20260830200045 26 103 6.4 16.1 0.00 0.00 0.00 70 1020.1
20260830195528 26 105 9.7 16.1 0.00 0.00 0.00 68 1020.1
20260830195029 26 110 9.7 16.1 0.00 0.00 0.00 68 1020.2
20260830194600 26 101 9.7 14.5 0.00 0.00 0.00 68 1020.3
20260830194027 26 105 8.0 17.7 0.00 0.00 0.00 70 1020.4
20260830193527 26 104 9.7 20.9 0.00 0.00 0.00 70 1020.5
20260830193047 26 109 12.9 24.1 0.00 0.00 0.00 69 1020.6
20260830192525 26 106 12.9 24.1 0.00 0.00 0.00 70 1020.6
20260830192027 26 103 17.7 25.7 0.00 0.00 0.00 68 1020.7
20260830191545 26 106 12.9 25.7 0.00 0.00 0.00 70 1020.7
20260830191027 26 104 17.7 25.7 0.00 0.00 0.00 72 1020.8
20260830190527 26 98 14.5 29.0 0.00 0.00 0.00 71 1020.7
20260830190046 26 103 16.1 29.0 0.00 0.00 0.00 70 1020.8
20260830185528 26 101 14.5 25.7 0.00 0.00 0.00 70 1020.8
20260830185032 27 96 12.9 27.4 0.00 0.00 0.00 67 1020.8
20260830184547 27 104 14.5 33.8 0.00 0.00 0.00 66 1020.9
20260830184028 27 92 12.9 33.8 0.00 0.00 0.00 68 1020.9
20260830183526 27 98 17.7 30.6 0.00 0.00 0.00 66 1020.8
20260830183047 27 101 16.1 29.0 0.00 0.00 0.00 67 1020.8
20260830182530 27 98 11.3 24.1 0.00 0.00 0.00 69 1020.8
20260830182028 27 101 14.5 24.1 0.00 0.00 0.00 68 1020.8
20260830181547 27 101 12.9 24.1 0.00 0.00 0.00 67 1020.8
20260830181024 27 103 12.9 20.9 0.00 0.00 0.00 67 1020.8
20260830180523 27 104 11.3 20.9 0.00 0.00 0.00 67 1020.8
20260830180054 27 100 9.7 16.1 0.00 0.00 0.00 69 1020.9
20260830175524 27 103 11.3 17.7 0.00 0.00 0.00 68 1021.0
20260830175025 27 103 9.7 20.9 0.00 0.00 0.00 69 1021.1
20260830174545 26 100 9.7 20.9 0.00 0.00 0.00 70 1021.1
20260830174027 26 104 11.3 19.3 0.00 0.00 0.00 67 1021.1
20260830173524 27 101 8.0 25.7 0.00 0.00 0.00 69 1021.3
20260830173054 27 99 8.0 25.7 0.00 0.00 0.00 68 1021.3
20260830172527 27 98 9.7 25.7 0.00 0.00 0.00 69 1021.4
20260830172029 27 104 4.8 19.3 0.00 0.00 0.00 70 1021.4
20260830171550 27 102 9.7 19.3 0.00 0.00 0.00 70 1021.5
20260830171026 27 100 11.3 19.3 0.00 0.00 0.00 70 1021.5
20260830170526 27 98 6.4 14.5 0.00 0.00 0.00 70 1021.5
20260830170045 27 98 9.7 14.5 0.00 0.00 0.00 69 1021.6
20260830165524 27 103 6.4 14.5 0.00 0.00 0.00 69 1021.6
20260830165029 27 102 4.8 9.7 0.00 0.00 0.00 71 1021.7
20260830164550 27 98 3.2 12.9 0.00 0.00 0.00 70 1021.7
20260830164025 27 98 4.8 12.9 0.00 0.00 0.00 70 1021.7
20260830163529 27 101 4.8 14.5 0.00 0.00 0.00 70 1021.7
20260830163054 27 103 3.2 14.5 0.00 0.00 0.00 70 1021.7
20260830162525 27 99 4.8 17.7 0.00 0.00 0.00 68 1021.7
20260830162029 27 102 6.4 17.7 0.00 0.00 0.00 69 1021.7
20260830161547 27 98 8.0 16.1 0.00 0.00 0.00 70 1021.7
20260830161028 27 105 4.8 14.5 0.00 0.00 0.00 68 1021.7
20260830160529 27 96 6.4 14.5 0.00 0.00 0.00 70 1021.7
20260830155528 27 96 4.8 14.5 0.00 0.00 0.00 71 1021.8
20260830155030 27 101 3.2 12.9 0.00 0.00 0.00 69 1021.9
20260830154545 26 98 3.2 9.7 0.00 0.00 0.00 73 1021.9
20260830154032 26 93 4.8 8.0 0.00 0.00 0.00 73 1021.9
20260830153528 26 101 3.2 6.4 0.00 0.00 0.00 73 1021.9
20260830153045 26 106 3.2 6.4 0.00 0.00 0.00 74 1021.9
20260830152533 26 101 1.6 6.4 0.00 0.00 0.00 77 1021.9